STARLINK-11198, 60114

Orbit data source: Space-Track

STARLINK-11198, 60114 is a payload satellite owned by SpaceX/Seattle (US) in LEO that was launched on Mon, 24 Jun 2024 UTC via an FALCON 9 launch vehicle from the Air Force Western Test Range (AFWTR). Payload-class satellites include a variety of spacecraft equipped with specific instruments for various scientific and technological missions. These include communications satellites like Starlink; space stations such as the ISS; scientific satellites like the Hubble; Earth observation satellites from companies like Planet Labs, Umbra, and HawkEye 360; GPS; miniature CubeSats for education and research; and military/defense satellites.

Loading next visibility...
Identifier
60114, 2024-118B
Orbit
LEO
Country
Flag of USUS
Related business
Manufacturer
SpaceX/Seattle
Mission
Operational Commercial Communications
Bus & Motor
STARLINK V2MD, Unknown motor
Mass
960 kg wet, ~910 kg dry
Launch date (UTC)
2024-06-24 (1 year ago)
Launch vehicle
FALCON 9
Launch site
Air Force Western Test Range (AFWTR)
Object type
Payload
Rocket body
Debris
Shape & HBR
Box + 2 Pan, 18.1 m
Radar Cross Section
36.964 m², Large (>1 m²)

Expand to show TLE details & history
Last TLE update: 11 hours ago

TLE from 11 hours ago
0 STARLINK-11198
1 60114U 24118B   25293.89630130 -.00000182  00000-0  33534-5 0  9994
2 60114  53.1596 190.6535 0001181  96.6092 263.5060 15.69710421 76039
Epoch: 2025-10-20T21:30Z
TLE epoch observation values (Epoch: 2025-10-20T21:30:40.432Z)
Latitude
-0.00004°
Longitude
-161.60704°
Altitude
360.731 km
Speed
7.694 km/s
True Right ascension
12h 42m 36s
True Declination
0° 00' 00"
Sunlit
Object was in daylight at epoch
Visualization orbit readout
Latitude
Unknown
Longitude
Unknown
Altitude
Unknown
Speed
Unknown
Apparent Right ascension
Unknown
Apparent Declination
Unknown
Sunlit
N/A
Visualization observer readout
Local Sidereal Time
03:21:30
Azimuth
Unknown
Elevation
Unknown
Doppler factor
Unknown
Orbital elements
Apogee altitude
360.782 km
Perigee altitude
359.191 km
Semi-major axis
6,738.123 km
Eccentricity
0.00012
Inclination
53.1596°
RAAN
190.6535°
Arg. of periapsis
96.6092°
True anomaly
263.49255°
Mean anomaly
263.506°
Eccentric anomaly
263.49928°
Mean motion
3.92405 °/min
Orbital period
91.74 mins
BSTAR
0.0000033534
Loading maneuver chart data...
Computing Atmospheric mass density...
Loading historical data...
Loading historical data...
Loading historical data...
Loading historical data...
Loading historical data...
Loading historical data...
Loading historical data...

Documentation

Showing up to 5 results
|